Retour au catalogue

COSMOS 2499 DEB

ActifPO
NORAD 55722·DEBRIS·🇷🇺 Russia

Lancé May 23, 2014 depuis Plesetsk Cosmodrome

Loading…

Prochains Passages (prochaines 24 heures)

TLE

VieillissantSource: Space-Track

Époque: Sep 3, 2026, 14:14 UTC

1 55722U 14028AJ  26246.59360392  .00001461  00000-0  59846-2 0  9999
2 55722  82.3593 197.2106 0116767 210.1476 149.2872 12.82539607 92410

Suivez COSMOS 2499 DEB en temps réel avec AllMySat

Download on the App Store